Regional Weather Roundup
Issued by NWS

Home | Current Version | Previous Version | Text Only | Print | Product List | Glossary Off
Versions: 1 2 3 4 5 6 7 8 9 10 11 12 13 14 15 16 17 18 19 20 21 22 23 24 25 26 27 28 29 30 31 32 33 34 35 36 37 38 39 40 41 42 43 44 45 46 47 48 49 50

000
ASUS45 KABQ 070601
RWRNM
NEW MEXICO REGIONAL WEATHER ROUNDUP
NATIONAL WEATHER SERVICE ALBUQUERQUE NM
1200 AM MDT TUE JUL 07 2015

NOTE: "FAIR" MEANS FEW OR NO CLOUDS BELOW 12,000 FEET AGL WITH NO
       SIGNIFICANT WEATHER OR OBSTRUCTIONS TO VISION.

      THIS PRODUCT IS RELEASED AS TWO VERSIONS.  ONE VERSION NEAR
      THE TOP OF THE HOUR CONTAINING PRELIMINARY DATA FROM ALBUQUERQUE
      AND OTHER STATIONS.  A FINAL VERSION WITH ADDITIONAL DATA IS
      ISSUED ABOUT 10 MINUTES AFTER THE HOUR.

NMZ501-503-504-510>518-070700-
NORTHWEST PLATEAU/NORTHCENTRAL MOUNTAINS

CITY           SKY/WX    TMP DP  RH WIND       PRES   REMARKS
FARMINGTON     LGT RAIN  70  53  54 SW9       30.16R
6HR MIN TEMP:  70; 6HR MAX TEMP:  82; 6HR PCP: TRACE;

SANTA FE       CLOUDY    63  58  83 NW6       30.27R
6HR MIN TEMP:  62; 6HR MAX TEMP:  72; 6HR PCP: TRACE;

TAOS           CLOUDY    57  46  67 SW9       30.32R

$$
NMZ402-403-502-505>509-070700-
WESTCENTRAL MOUNTAINS/SOUTHWEST MOUNTAINS

CITY           SKY/WX    TMP DP  RH WIND       PRES   REMARKS
GALLUP         MOCLDY    59  56  89 CALM      30.25R
6HR MIN TEMP:  59; 6HR MAX TEMP:  77; 6HR PCP:  0.10;

GRANTS         CLOUDY    64  55  74 CALM      30.29R
SILVER CITY      N/A     68  57  68 NW7       30.16R

$$
NMZ407-409-411-412-070700-
SOUTHERN DESERTS

CITY           SKY/WX    TMP DP  RH WIND       PRES   REMARKS
DEMING         PTCLDY    77  59  53 W8        30.04S
6HR MIN TEMP:  77; 6HR MAX TEMP:  93;

HOLLOMAN AFB   PTCLDY    81  59  47 SW9       29.99R
ALAMOGORDO     MOCLDY    77  57  50 SW7       30.02R
T OR C         PTCLDY    73  59  61 N20G26    30.11R
6HR MIN TEMP:  73; 6HR MAX TEMP:  90; 6HR PCP: TRACE;


$$
NMZ519>523-070700-
CENTRAL VALLEYS/CENTRAL HIGHLANDS

CITY           SKY/WX    TMP DP  RH WIND       PRES   REMARKS
ALBUQUERQUE    CLOUDY    69  57  65 E26G36    30.18R
6HR MIN TEMP:  69; 6HR MAX TEMP:  75; 6HR PCP: TRACE;

DOUBLE EAGLE   CLOUDY    68  56  66 SE17      30.22S
MORIARTY ARPT    N/A     64  56  76 SE5       30.29S
6HR MIN TEMP:  62; 6HR MAX TEMP:  66; 6HR PCP:  0.01;

CLINES CORNERS CLOUDY    58  56  93 E17G23    30.31R
6HR MIN TEMP:  58; 6HR MAX TEMP:  61; 6HR PCP:  0.11;

BELEN          LGT RAIN  69  57  65 S24G31    30.18R
6HR MIN TEMP:  69; 6HR MAX TEMP:  86;

SOCORRO        NOT AVBL

$$
NMZ524>526-539-540-070700-
SOUTHCENTRAL MOUNTAINS

CITY           SKY/WX    TMP DP  RH WIND       PRES   REMARKS
RUIDOSO        NOT AVBL

$$
NMZ527>531-070700-
NORTHEAST HIGHLANDS/NORTHEAST PLAINS

CITY           SKY/WX    TMP DP  RH WIND       PRES   REMARKS
LAS VEGAS      CLOUDY    57  56  96 NE9       30.33R
6HR MIN TEMP:  57; 6HR MAX TEMP:  60; 6HR PCP: TRACE;

RATON          CLOUDY    59  56  89 NE5       30.31R
6HR MIN TEMP:  58; 6HR MAX TEMP:  64; 6HR PCP: TRACE;

CLAYTON        CLOUDY    63  59  87 NE12      30.25R
6HR MIN TEMP:  63; 6HR MAX TEMP:  67; 6HR PCP: TRACE;


$$
NMZ532>537-070700-
EASTCENTRAL PLAINS

CITY           SKY/WX    TMP DP  RH WIND       PRES   REMARKS
TUCUMCARI      CLOUDY    67  63  87 NE12      30.16S
6HR MIN TEMP:  66; 6HR MAX TEMP:  76; 6HR PCP:  0.31;

CANNON AFB     CLOUDY    65  63  94 NE20G26   30.14S
6HR MIN TEMP:  65; 6HR MAX TEMP:  73; 6HR PCP:  0.44;

CLOVIS AIRPORT CLOUDY    64  63  94 NE17G25     N/A

$$
NMZ028-029-538-070700-
SOUTHEAST PLAINS

CITY           SKY/WX    TMP DP  RH WIND       PRES   REMARKS
ROSWELL        CLOUDY    72  64  76 N15       30.10S
6HR MIN TEMP:  71; 6HR MAX TEMP:  96; 6HR PCP: TRACE;

ARTESIA        RAIN      70  70 100 N16       30.08F
CARLSBAD       CLOUDY    73  67  81 NW14      30.02R
6HR MIN TEMP:  72; 6HR MAX TEMP:  92; 6HR PCP:  0.24;

HOBBS          CLOUDY    68  68 100 N10       30.05F


$$


USA.gov is the U.S. government's official web portal to all federal, state and local government web resources and services.